Weather in Zdolbuniv

Ukraine / Rovno District     50˚31′18″N   26˚14′37″E
temp.,
°C
wind,
m/s
gust,
m/s
humid.,
%
clouds,
%
prec.,
mm/h
press.,
hPa
HPBL,
m
3 december, thu
thu323:00−1˚sse4780100 0.0 1025644
02:00−1˚sse4883100 0.0 1024582
05:00−1˚sse5980100 0.0 1023624
08:00sse6981100 0.0 1023740
11:00+2˚sse61179100 0.0 1022896
14:00+2˚sse71179100 0.0 1020847
17:00+2˚se61284100 0.0 1019651
20:00+2˚sse7138699 0.0 1019745
4 december, fri
fri423:00+3˚sse71485100 0.0 1018752
02:00+3˚se71488100 0.0 1017739
05:00+3˚se81491100 0.0 1016745
08:00+3˚sse9148999 0.0 1016660
11:00+4˚sse91585100 0.0 1015775
14:00+7˚sse91577100 0.0 1014890
17:00+7˚se81677100 0.0 1014911
20:00+8˚sse81684100 0.0 1015914
5 december, sat
sat523:00+8˚sse81583100 0.0 1016802
02:00+8˚se81583100 0.0 1016763
05:00+8˚sse91683100 0.0 1016787
08:00+8˚sse9158198 0.0 1017803
11:00+8˚sse101578100 0.0 1018877
14:00+8˚sse101576100 0.0 1019915
17:00+7˚se91577100 0.0 1020898
20:00+6˚se91580100 0.0 1021784
6 december, sun
sun623:00+5˚sse9148098 0.0 1022725
02:00+3˚se8148391 0.0 1023577
05:00+1˚se9148677 0.0 1023535
08:00+1˚se9148684 0.0 1023588
11:00+2˚se91478100 0.0 1024679
14:00+2˚se9147297 0.0 1023742
17:00+1˚se8167211 0.0 1022724
20:00se1018696 0.0 1023728
7 december, mon
mon723:00−1˚se10196813 0.0 1023699
02:00−1˚se1018706 0.0 1022647
05:00−2˚se1018729 0.0 1021700
08:00se10167449 0.0 1021871
11:00+1˚se101669100 0.0 1021810
14:00+2˚se101569100 0.0 1021794
17:00se91571100 0.0 1021649
20:00−1˚se81566100 0.0 1022648